Regional Weather Roundup
Issued by NWS

Home | Current Version | Previous Version | Text Only | Print | Product List | Glossary On
Versions: 1 2 3 4 5 6 7 8 9 10 11 12 13 14 15 16 17 18 19 20 21 22 23 24 25 26 27 28 29 30 31 32 33 34 35 36 37 38 39 40 41 42 43 44 45 46 47 48 49 50
000
ASUS43 KDTX 251910
RWRMI
MICHIGAN HOURLY REGIONAL WEATHER ROUNDUP
NATIONAL WEATHER SERVICE DETROIT/PONTIAC MI
300 PM EDT WED APR 25 2018

NOTE: "FAIR" INDICATES FEW OR NO CLOUDS BELOW 12,000 FEET WITH NO
SIGNIFICANT WEATHER AND/OR OBSTRUCTION TO VISIBILITY.

MIZ047>049-052>055-059>063-066>070-074>076-081>083-252000-
SOUTHEAST LOWER MICHIGAN

CITY           SKY/WX    TMP DP  RH WIND       PRES   REMARKS
ADRIAN         FAIR      61  38  42 NW16      29.93S
ALMA           FAIR      55  34  45 N10G21    29.97S
ANN ARBOR      FAIR      60  39  45 NW13G24   29.92S
BAD AXE        CLOUDY    44  38  78 N14       29.97S
CARO           CLOUDY    46  40  80 N10       29.97S
DETROIT CITY   CLOUDY    56  39  53 N14       29.92S
DETROIT        FAIR      59  38  45 N13       29.92R
FLINT          CLOUDY    52  40  63 N16G22    29.95S
GROSSE ILE     PTSUNNY   59  41  52 N16       29.90S
HILLSDALE      FAIR      59  36  41 N10G21    29.93S
HOWELL         CLOUDY    56  39  51 N10G18    29.93S

CITY           SKY/WX    TMP DP  RH WIND       PRES   REMARKS
JACKSON        FAIR      59  34  39 NW14G20   29.94S
LAMBERTVILLE   PTSUNNY   62  39  42 NW12G20   29.92R
LANSING        FAIR      57  34  41 NW14      29.96S
LAPEER         CLOUDY    48  40  72 N10       29.95S
MASON          PTSUNNY   59  33  36 N12       29.95S
MONROE         CLOUDY    60  39  46 NW17G25   29.90S
MT. CLEMENS    CLOUDY    50  47  90 N17       29.92R
PONTIAC        PTSUNNY   54  39  57 N16G23    29.91F
PORT HOPE        N/A     38  36  92 N13G23    29.96S WCI  30
PORT HURON     CLOUDY    46  39  76 N12G18    29.94S
TRI CITIES     CLOUDY    50  41  71 NE9       29.97F
MIDLAND        CLOUDY    53  36  53 NW12      29.96S
TROY           CLOUDY    55  41  59 NW14G20   29.95R
SAGINAW HB     CLOUDY    50  41  71 NE12      29.97S
$$
MIZ043>046-050>051-056>058-064>065-071>073-077>080-252000-
SOUTHWEST LOWER MICHIGAN

CITY           SKY/WX    TMP DP  RH WIND       PRES   REMARKS
BATTLE CREEK   FAIR      59  31  34 NW9G18    29.97S
BENTON HARBOR  FAIR      44  34  67 NW15G25   30.06F
BIG RAPIDS     PTSUNNY   51  30  44 N15       29.99F
COLDWATER      FAIR      61  34  36 NW10G21   29.96S
FREMONT        FAIR      55  24  29 N13G18    30.00S
HOLLAND        FAIR      48  35  60 NW17G23   30.03S
GRAND RAPIDS   FAIR      59  31  34 W8        29.97F
IONIA          FAIR      58  32  37 N13       29.96S
KALAMAZOO      FAIR      60  32  34 N10G22    29.98F
LUDINGTON      FAIR      45  34  66 N16G25    30.06F
MARSHALL       FAIR      59  32  35 NW8G17    29.95S
MOUNT PLEASANT PTSUNNY   55  35  47 NW12G20   29.98S
MUSKEGON       FAIR      53  36  52 W15       30.01F
SOUTH HAVEN    FAIR      44  35  70 NW16G26   30.05S
$$
MIZ016>042-252000-
NORTHERN LOWER MICHIGAN

CITY           SKY/WX    TMP DP  RH WIND       PRES   REMARKS
ALPENA         CLOUDY    41  35  79 NW14      30.01F
BEAVER ISLAND  CLOUDY    48  31  51 NW8G17    30.06S
BELLAIRE       CLOUDY    43  32  64 N7        30.06R
CADILLAC       CLOUDY    45  33  61 N10G20    30.02S
CHARLEVOIX     CLOUDY    42  32  69 NW9       30.09S
FRANKFORT      PTSUNNY   46  32  59 N10G20    30.09F
GAYLORD        CLOUDY    40  33  76 VRB7      30.02R
GRAYLING       CLOUDY    45  34  66 NW14      30.00S
HARBOR SPRINGS CLOUDY    45  32  59 N7        30.04S
HOUGHTON LAKE  CLOUDY    46  33  60 NW12      30.00S
MANISTEE       FAIR      44  33  65 NW17G26   30.08S
OSCODA         CLOUDY    42  38  83 NW13      29.98F
PELLSTON       CLOUDY    46  31  55 NW10      30.04F
ROGERS CITY    CLOUDY    40  33  75 NW8       30.03S WCI  35
TRAVERSE CITY  CLOUDY    45  33  63 N10       30.06S
$$
MIZ007>008-015-252000-
EASTERN UPPER MICHIGAN

CITY           SKY/WX    TMP DP  RH WIND       PRES   REMARKS
KINROSS        CLOUDY    41  29  62 N14G22    30.04S
MACKINAC ISLAN CLOUDY    46  30  55 N14       30.03F
NEWBERRY       FAIR      40  28  63 NW12G17   30.06F WCI  32
MUNISING         N/A     35  29  78 NW17      30.13S WCI  25
$$
MIZ004>006-011>014-085-252000-
CENTRAL UPPER MICHIGAN

CITY           SKY/WX    TMP DP  RH WIND       PRES   REMARKS
MANISTIQUE     FAIR      47  27  46 NW14G21   30.08S
ESCANABA       FAIR      48  24  39 N5G17     30.10F
MENOMINEE      FAIR      45  28  51 SE9       30.11F
SAWYER-GWINN   SUNNY     39  27  60 N8        30.11F WCI  34
$$
MIZ001>003-009>011-084-252000-
WESTERN UPPER MICHIGAN

CITY           SKY/WX    TMP DP  RH WIND       PRES   REMARKS
IRON MOUNTAIN  FAIR      51  25  36 MISG      30.07F
HOUGHTON       FAIR      40  22  48 NW10      30.12F WCI  33
COPPER HARBOR    N/A     35  27  72 N13       30.12F WCI  26
IRONWOOD       FAIR      44  22  41 CALM      30.13F
$$

ABBREVIATIONS USED IN REMARKS
   TC - TEMPERATURE IN CELSIUS
  WCI - WIND CHILL INDEX
   HX - HEAT INDEX
  VSB - VISIBILITY





USA.gov is the U.S. government's official web portal to all federal, state and local government web resources and services.